Location: Gombori
(14.9797°N, 2.9419°W)
Time: 00:20:26
(UTC+00:00)

SJ-6B - Pass Details

Date: 29 July 2021
Orbit: 510 x 579 km, 97.6° (Epoch: 20 September)

Event Time Altitude Azimuth Distance (km) Brightness Sun altitude
Exits shadow 20:41:30 40° 291° (WNW) 760 3.9 -27.0°
Drops below altitude 10° 20:44:25 10° 333° (NNW) 1,725 6.0 -27.6°
Sets 20:46:34 0° 340° (NNW) 2,609 7.0 -28.0°
